StationID,Date,MaxTemp,MinTemp,Precipitation,Snowfall,SnowDepth
"CA001163810","1949-08-01",96.98,59.00,0.00,0.00,
"CA001163810","1949-08-02",95.00,66.02,0.00,0.00,
"CA001163810","1949-08-03",96.08,57.02,0.00,0.00,
"CA001163810","1949-08-04",96.08,60.08,0.00,0.00,
"CA001163810","1949-08-05",82.94,57.02,0.00,0.00,
"CA001163810","1949-08-06",80.06,57.02,0.00,0.00,
"CA001163810","1949-08-07",86.00,57.02,28.00,0.00,
"CA001163810","1949-08-08",78.98,53.06,8.00,0.00,
"CA001163810","1949-08-09",87.08,48.02,0.00,0.00,
"CA001163810","1949-08-10",84.92,57.92,0.00,0.00,
"CA001163810","1949-08-11",80.06,62.96,0.00,0.00,
"CA001163810","1949-08-12",77.00,57.92,0.00,0.00,
"CA001163810","1949-08-13",75.02,50.00,0.00,0.00,
"CA001163810","1949-08-14",82.04,62.96,0.00,0.00,
"CA001163810","1949-08-15",84.02,55.04,0.00,0.00,
"CA001163810","1949-08-16",82.04,60.98,0.00,0.00,
"CA001163810","1949-08-17",82.04,60.08,0.00,0.00,
"CA001163810","1949-08-18",84.02,48.02,0.00,0.00,
"CA001163810","1949-08-19",84.92,50.00,0.00,0.00,
"CA001163810","1949-08-20",86.00,48.92,0.00,0.00,
"CA001163810","1949-08-21",80.06,55.94,0.00,0.00,
"CA001163810","1949-08-22",86.00,53.96,0.00,0.00,
"CA001163810","1949-08-23",80.06,50.00,0.00,0.00,
"CA001163810","1949-08-24",80.06,53.96,0.00,0.00,
"CA001163810","1949-08-25",80.06,57.02,0.00,0.00,
"CA001163810","1949-08-26",82.94,46.94,0.00,0.00,
"CA001163810","1949-08-27",82.04,48.92,0.00,0.00,
"CA001163810","1949-08-28",86.00,51.08,0.00,0.00,
"CA001163810","1949-08-29",89.96,53.06,0.00,0.00,
"CA001163810","1949-08-30",93.02,51.98,0.00,0.00,
"CA001163810","1949-08-31",89.96,53.06,0.00,0.00,
"CA001163810","1949-09-01",89.96,51.98,0.00,0.00,
"CA001163810","1949-09-02",89.96,62.06,0.00,0.00,
"CA001163810","1949-09-03",84.92,51.98,0.00,0.00,
"CA001163810","1949-09-04",78.98,59.00,48.00,0.00,
"CA001163810","1949-09-05",84.92,51.08,0.00,0.00,
"CA001163810","1949-09-06",84.92,50.00,0.00,0.00,
"CA001163810","1949-09-07",87.98,50.00,0.00,0.00,
"CA001163810","1949-09-08",87.98,50.00,0.00,0.00,
"CA001163810","1949-09-09",86.00,48.02,0.00,0.00,
"CA001163810","1949-09-10",84.92,46.04,0.00,0.00,
"CA001163810","1949-09-11",64.04,42.98,0.00,0.00,
"CA001163810","1949-09-12",75.02,30.92,0.00,0.00,
"CA001163810","1949-09-13",78.08,44.06,0.00,0.00,
"CA001163810","1949-09-14",78.08,51.98,0.00,0.00,
"CA001163810","1949-09-15",66.02,53.96,5.00,0.00,
"CA001163810","1949-09-16",68.00,50.00,23.00,0.00,
"CA001163810","1949-09-17",68.00,44.96,0.00,0.00,
"CA001163810","1949-09-18",68.00,48.02,0.00,0.00,
"CA001163810","1949-09-19",68.00,39.92,36.00,0.00,
"CA001163810","1949-09-20",62.06,35.06,0.00,0.00,
"CA001163810","1949-09-21",69.98,46.04,0.00,0.00,
"CA001163810","1949-09-22",73.94,42.08,0.00,0.00,
"CA001163810","1949-09-23",75.92,42.08,0.00,0.00,
"CA001163810","1949-09-24",75.92,42.98,0.00,0.00,
"CA001163810","1949-09-25",78.98,42.98,0.00,0.00,
"CA001163810","1949-09-26",80.06,41.00,0.00,0.00,
"CA001163810","1949-09-27",75.92,41.00,0.00,0.00,
"CA001163810","1949-09-28",78.98,41.00,0.00,0.00,
"CA001163810","1949-09-29",77.00,48.92,0.00,0.00,
"CA001163810","1949-09-30",69.08,53.06,0.00,0.00,
"CA001163810","1949-10-01",62.06,39.92,0.00,0.00,
"CA001163810","1949-10-02",57.02,46.94,0.00,0.00,
"CA001163810","1949-10-03",66.92,37.04,10.00,0.00,
"CA001163810","1949-10-04",59.00,42.08,0.00,0.00,
"CA001163810","1949-10-05",55.94,41.00,25.00,0.00,
"CA001163810","1949-10-06",55.94,30.92,3.00,0.00,
"CA001163810","1949-10-07",53.96,33.08,0.00,0.00,
"CA001163810","1949-10-08",50.00,24.08,0.00,0.00,
"CA001163810","1949-10-09",44.06,39.02,8.00,0.00,
"CA001163810","1949-10-10",57.92,33.98,99.00,0.00,
"CA001163810","1949-10-11",60.08,41.00,0.00,0.00,
"CA001163810","1949-10-12",62.06,39.92,0.00,0.00,
"CA001163810","1949-10-13",57.02,30.92,0.00,0.00,
"CA001163810","1949-10-14",60.08,35.96,0.00,0.00,
"CA001163810","1949-10-15",60.98,44.96,0.00,0.00,
"CA001163810","1949-10-16",51.98,33.08,0.00,0.00,
"CA001163810","1949-10-17",51.98,28.04,0.00,0.00,
"CA001163810","1949-10-18",42.08,26.06,0.00,0.00,
"CA001163810","1949-10-19",42.98,19.94,0.00,0.00,
"CA001163810","1949-10-20",48.92,21.92,0.00,0.00,
"CA001163810","1949-10-21",48.92,26.06,0.00,0.00,
"CA001163810","1949-10-22",51.08,26.06,0.00,0.00,
"CA001163810","1949-10-23",46.94,28.04,0.00,0.00,
"CA001163810","1949-10-24",51.08,33.98,0.00,0.00,
"CA001163810","1949-10-25",48.02,35.06,0.00,0.00,
"CA001163810","1949-10-26",53.06,39.02,3.00,0.00,
"CA001163810","1949-10-27",51.08,39.02,0.00,0.00,
"CA001163810","1949-10-28",60.98,46.94,23.00,0.00,
"CA001163810","1949-10-29",53.96,32.00,0.00,0.00,
"CA001163810","1949-10-30",59.00,33.98,0.00,0.00,
"CA001163810","1949-10-31",62.06,42.98,0.00,0.00,
"CA001163810","1949-11-01",53.96,30.92,0.00,0.00,
"CA001163810","1949-11-02",50.00,30.02,0.00,0.00,
"CA001163810","1949-11-03",46.04,33.98,0.00,0.00,
"CA001163810","1949-11-04",51.08,33.98,0.00,0.00,
"CA001163810","1949-11-05",46.94,37.04,0.00,0.00,
"CA001163810","1949-11-06",42.08,37.04,0.00,0.00,
"CA001163810","1949-11-07",42.08,35.96,0.00,0.00,
"CA001163810","1949-11-08",48.92,37.04,0.00,0.00,
"CA001163810","1949-11-09",57.02,39.02,5.00,0.00,
"CA001163810","1949-11-10",44.96,35.06,0.00,0.00,
"CA001163810","1949-11-11",51.98,37.94,0.00,0.00,
"CA001163810","1949-11-12",55.04,44.06,0.00,0.00,
"CA001163810","1949-11-13",42.08,33.08,0.00,0.00,
"CA001163810","1949-11-14",55.94,33.98,0.00,0.00,
"CA001163810","1949-11-15",60.98,37.04,0.00,0.00,
"CA001163810","1949-11-16",46.94,37.04,0.00,0.00,
"CA001163810","1949-11-17",55.04,37.04,0.00,0.00,
"CA001163810","1949-11-18",62.06,44.96,0.00,0.00,
"CA001163810","1949-11-19",53.96,28.04,0.00,0.00,
"CA001163810","1949-11-20",37.94,24.98,0.00,0.00,
"CA001163810","1949-11-21",35.96,32.00,0.00,0.00,
"CA001163810","1949-11-22",44.96,30.92,0.00,0.00,
"CA001163810","1949-11-23",44.96,28.04,0.00,0.00,
"CA001163810","1949-11-24",46.94,30.92,0.00,0.00,
"CA001163810","1949-11-25",51.98,41.00,18.00,0.00,
"CA001163810","1949-11-26",57.92,44.06,3.00,0.00,
"CA001163810","1949-11-27",59.00,46.94,0.00,0.00,
"CA001163810","1949-11-28",55.04,32.00,0.00,0.00,
"CA001163810","1949-11-29",48.92,30.02,0.00,0.00,
"CA001163810","1949-11-30",44.96,33.98,0.00,0.00,
"CA001163810","1949-12-01",60.98,41.00,0.00,0.00,
"CA001163810","1949-12-02",55.94,32.00,84.00,0.00,
"CA001163810","1949-12-03",35.96,24.98,0.00,0.00,
"CA001163810","1949-12-04",42.08,26.96,0.00,0.00,
"CA001163810","1949-12-05",39.92,32.00,0.00,0.00,
"CA001163810","1949-12-06",39.02,24.98,0.00,0.00,
"CA001163810","1949-12-07",33.98,23.00,0.00,0.00,
"CA001163810","1949-12-08",30.92,26.06,0.00,0.00,
"CA001163810","1949-12-09",33.08,26.06,114.00,114.00,
"CA001163810","1949-12-10",33.08,17.96,0.00,0.00,
"CA001163810","1949-12-11",26.96,3.02,0.00,0.00,
"CA001163810","1949-12-12",21.92,12.02,13.00,13.00,
"CA001163810","1949-12-13",24.98,10.94,0.00,0.00,
"CA001163810","1949-12-14",30.02,21.92,114.00,114.00,
"CA001163810","1949-12-15",35.96,28.94,13.00,13.00,
"CA001163810","1949-12-16",37.04,28.94,13.00,13.00,
"CA001163810","1949-12-17",35.06,26.06,13.00,13.00,
"CA001163810","1949-12-18",26.06,-9.94,38.00,38.00,
"CA001163810","1949-12-19",10.94,-4.00,25.00,25.00,
"CA001163810","1949-12-20",6.98,3.92,25.00,25.00,
"CA001163810","1949-12-21",19.94,5.00,13.00,13.00,
"CA001163810","1949-12-22",21.02,12.92,38.00,38.00,
"CA001163810","1949-12-23",24.08,17.96,152.00,152.00,
"CA001163810","1949-12-24",26.96,17.06,0.00,0.00,
"CA001163810","1949-12-25",24.98,10.04,0.00,0.00,
"CA001163810","1949-12-26",23.00,8.96,0.00,0.00,
"CA001163810","1949-12-27",28.04,17.06,152.00,152.00,
"CA001163810","1949-12-28",17.06,10.04,25.00,25.00,
"CA001163810","1949-12-29",10.94,5.00,38.00,38.00,
"CA001163810","1949-12-30",8.06,-5.98,13.00,13.00,
"CA001163810","1949-12-31",15.08,-0.04,13.00,13.00,
"CA001163810","1950-01-01",10.94,-5.98,0.00,0.00,
"CA001163810","1950-01-02",-0.94,-20.02,0.00,0.00,
"CA001163810","1950-01-03",-14.08,-27.04,0.00,0.00,
"CA001163810","1950-01-04",3.02,-16.06,25.00,25.00,
"CA001163810","1950-01-05",8.06,-16.06,0.00,0.00,
"CA001163810","1950-01-06",15.08,3.02,43.00,43.00,
"CA001163810","1950-01-07",19.94,6.98,13.00,13.00,
"CA001163810","1950-01-08",17.96,8.96,13.00,13.00,
"CA001163810","1950-01-09",15.08,6.98,0.00,0.00,
"CA001163810","1950-01-10",12.92,3.92,165.00,165.00,
"CA001163810","1950-01-11",10.04,5.00,0.00,0.00,
"CA001163810","1950-01-12",6.08,-5.08,0.00,0.00,
"CA001163810","1950-01-13",-5.08,-25.06,0.00,0.00,
"CA001163810","1950-01-14",-9.94,-20.92,0.00,0.00,
"CA001163810","1950-01-15",-13.00,-22.00,0.00,0.00,
"CA001163810","1950-01-16",-11.02,-31.00,0.00,0.00,
"CA001163810","1950-01-17",-13.00,-31.00,0.00,0.00,
"CA001163810","1950-01-18",-13.00,-34.96,0.00,0.00,
"CA001163810","1950-01-19",-5.98,-25.96,38.00,38.00,
"CA001163810","1950-01-20",6.08,-5.98,13.00,13.00,
"CA001163810","1950-01-21",17.06,6.08,0.00,0.00,
"CA001163810","1950-01-22",19.94,12.02,0.00,0.00,
"CA001163810","1950-01-23",19.04,-2.92,0.00,0.00,
"CA001163810","1950-01-24",-2.92,-20.02,0.00,0.00,
"CA001163810","1950-01-25",-9.94,-34.06,5.00,5.00,
"CA001163810","1950-01-26",-5.98,-20.02,0.00,0.00,
"CA001163810","1950-01-27",-4.00,-18.94,0.00,0.00,
"CA001163810","1950-01-28",-5.98,-29.02,0.00,0.00,
"CA001163810","1950-01-29",-2.92,-22.00,0.00,0.00,
"CA001163810","1950-01-30",-0.94,-25.06,8.00,8.00,
"CA001163810","1950-01-31",-0.94,-18.94,5.00,5.00,
"CA001163810","1950-02-01",3.02,-14.98,0.00,0.00,
"CA001163810","1950-02-02",6.98,-18.94,0.00,0.00,
"CA001163810","1950-02-03",12.02,-16.96,0.00,0.00,
"CA001163810","1950-02-04",26.06,10.04,0.00,0.00,
"CA001163810","1950-02-05",33.98,19.04,0.00,0.00,
"CA001163810","1950-02-06",44.06,28.94,0.00,0.00,
"CA001163810","1950-02-07",39.92,28.04,0.00,0.00,
"CA001163810","1950-02-08",44.96,37.94,0.00,0.00,
"CA001163810","1950-02-09",35.06,24.08,0.00,0.00,
"CA001163810","1950-02-10",35.96,24.98,0.00,0.00,
"CA001163810","1950-02-11",39.92,28.04,0.00,0.00,
"CA001163810","1950-02-12",35.96,19.04,0.00,0.00,
"CA001163810","1950-02-13",41.00,32.00,0.00,0.00,
"CA001163810","1950-02-14",42.98,35.96,0.00,0.00,
"CA001163810","1950-02-15",51.08,37.94,0.00,0.00,
"CA001163810","1950-02-16",50.00,35.06,0.00,0.00,
"CA001163810","1950-02-17",42.98,33.08,0.00,0.00,
"CA001163810","1950-02-18",48.02,37.04,0.00,0.00,
"CA001163810","1950-02-19",48.02,37.04,0.00,0.00,
"CA001163810","1950-02-20",46.04,28.04,0.00,0.00,
"CA001163810","1950-02-21",42.98,30.92,33.00,0.00,
"CA001163810","1950-02-22",48.02,30.02,0.00,0.00,
"CA001163810","1950-02-23",44.96,26.96,51.00,51.00,
"CA001163810","1950-02-24",48.02,32.00,0.00,0.00,
"CA001163810","1950-02-25",46.94,30.92,56.00,0.00,
"CA001163810","1950-02-26",51.98,35.06,0.00,0.00,
"CA001163810","1950-02-27",42.98,28.94,0.00,0.00,
"CA001163810","1950-02-28",41.00,24.08,0.00,0.00,
"CA001163810","1950-03-01",41.00,23.00,0.00,0.00,
"CA001163810","1950-03-02",50.00,35.06,0.00,0.00,
"CA001163810","1950-03-03",59.00,39.92,0.00,0.00,
"CA001163810","1950-03-04",57.02,35.96,0.00,0.00,
"CA001163810","1950-03-05",57.92,33.08,53.00,0.00,
"CA001163810","1950-03-06",50.00,35.06,5.00,0.00,
"CA001163810","1950-03-07",46.94,26.06,0.00,0.00,
"CA001163810","1950-03-08",44.96,26.96,0.00,0.00,
"CA001163810","1950-03-09",37.94,26.96,0.00,0.00,
"CA001163810","1950-03-10",33.08,21.92,51.00,51.00,
"CA001163810","1950-03-11",28.94,8.06,0.00,0.00,
"CA001163810","1950-03-12",30.92,8.06,0.00,0.00,
"CA001163810","1950-03-13",37.04,12.02,0.00,0.00,
"CA001163810","1950-03-14",37.94,17.96,0.00,0.00,
"CA001163810","1950-03-15",44.96,30.92,0.00,0.00,
"CA001163810","1950-03-16",48.02,37.94,0.00,0.00,
"CA001163810","1950-03-17",42.98,33.98,0.00,0.00,
"CA001163810","1950-03-18",42.98,28.04,0.00,0.00,
"CA001163810","1950-03-19",51.08,33.98,0.00,0.00,
"CA001163810","1950-03-20",51.08,26.06,0.00,0.00,
"CA001163810","1950-03-21",53.06,30.02,0.00,0.00,
"CA001163810","1950-03-22",53.96,35.06,0.00,0.00,
"CA001163810","1950-03-23",51.98,30.92,0.00,0.00,
"CA001163810","1950-03-24",53.06,35.96,0.00,0.00,
"CA001163810","1950-03-25",57.92,30.02,0.00,0.00,
"CA001163810","1950-03-26",57.02,26.96,0.00,0.00,
"CA001163810","1950-03-27",51.98,33.98,0.00,0.00,
"CA001163810","1950-03-28",51.08,33.98,5.00,0.00,
"CA001163810","1950-03-29",48.92,24.08,0.00,0.00,
"CA001163810","1950-03-30",53.06,35.06,0.00,0.00,
"CA001163810","1950-03-31",51.08,26.06,5.00,0.00,
"CA001163810","1950-04-01",57.02,33.08,0.00,0.00,
"CA001163810","1950-04-02",55.04,37.04,23.00,0.00,
"CA001163810","1950-04-03",53.96,28.04,5.00,0.00,
"CA001163810","1950-04-04",59.00,30.92,0.00,0.00,
"CA001163810","1950-04-05",64.94,39.02,0.00,0.00,
"CA001163810","1950-04-06",64.04,37.94,152.00,0.00,
"CA001163810","1950-04-07",48.92,30.02,5.00,0.00,
"CA001163810","1950-04-08",57.92,28.94,0.00,0.00,
"CA001163810","1950-04-09",53.96,37.94,0.00,0.00,
"CA001163810","1950-04-10",60.08,32.00,0.00,0.00,
"CA001163810","1950-04-11",66.92,41.00,0.00,0.00,
"CA001163810","1950-04-12",68.00,42.98,5.00,0.00,
"CA001163810","1950-04-13",62.06,35.96,0.00,0.00,
"CA001163810","1950-04-14",62.06,44.96,0.00,0.00,
"CA001163810","1950-04-15",62.06,44.96,0.00,0.00,
"CA001163810","1950-04-16",64.94,41.00,0.00,0.00,
"CA001163810","1950-04-17",60.08,37.04,0.00,0.00,
"CA001163810","1950-04-18",60.98,26.96,0.00,0.00,
"CA001163810","1950-04-19",68.00,39.92,0.00,0.00,
"CA001163810","1950-04-20",71.96,44.96,0.00,0.00,
"CA001163810","1950-04-21",60.98,30.92,0.00,0.00,
"CA001163810","1950-04-22",53.96,37.94,3.00,0.00,
"CA001163810","1950-04-23",53.06,35.06,0.00,0.00,
"CA001163810","1950-04-24",53.06,39.02,0.00,0.00,
"CA001163810","1950-04-25",55.04,35.96,5.00,0.00,
"CA001163810","1950-04-26",51.98,30.02,33.00,0.00,
"CA001163810","1950-04-27",55.94,37.94,15.00,0.00,
"CA001163810","1950-04-28",62.06,42.08,0.00,0.00,
"CA001163810","1950-04-29",66.92,32.00,0.00,0.00,
"CA001163810","1950-04-30",71.06,35.96,0.00,0.00,
"CA001163810","1950-05-01",71.06,42.98,0.00,0.00,
"CA001163810","1950-05-02",59.00,41.00,13.00,0.00,
"CA001163810","1950-05-03",64.94,39.92,15.00,0.00,
"CA001163810","1950-05-04",64.94,44.06,0.00,0.00,
"CA001163810","1950-05-05",60.08,42.98,3.00,0.00,
"CA001163810","1950-05-06",64.94,39.02,0.00,0.00,
"CA001163810","1950-05-07",64.04,44.06,0.00,0.00,
"CA001163810","1950-05-08",73.04,37.04,43.00,0.00,
"CA001163810","1950-05-09",73.94,41.00,0.00,0.00,
"CA001163810","1950-05-10",73.94,48.02,3.00,0.00,
"CA001163810","1950-05-11",82.04,44.06,0.00,0.00,
"CA001163810","1950-05-12",82.04,46.04,0.00,0.00,
"CA001163810","1950-05-13",75.02,44.96,0.00,0.00,
"CA001163810","1950-05-14",75.02,48.92,0.00,0.00,
"CA001163810","1950-05-15",71.06,42.08,61.00,0.00,
"CA001163810","1950-05-16",71.06,46.94,0.00,0.00,
"CA001163810","1950-05-17",62.06,46.04,0.00,0.00,
"CA001163810","1950-05-18",62.06,35.96,0.00,0.00,
"CA001163810","1950-05-19",68.00,39.02,0.00,0.00,
"CA001163810","1950-05-20",66.92,41.00,0.00,0.00,
"CA001163810","1950-05-21",71.06,48.02,0.00,0.00,
"CA001163810","1950-05-22",71.06,44.96,5.00,0.00,
"CA001163810","1950-05-23",64.04,48.92,0.00,0.00,
"CA001163810","1950-05-24",71.06,35.06,5.00,0.00,
"CA001163810","1950-05-25",69.08,37.94,0.00,0.00,
"CA001163810","1950-05-26",71.96,59.00,0.00,0.00,
"CA001163810","1950-05-27",71.96,48.02,30.00,0.00,
"CA001163810","1950-05-28",62.96,46.94,8.00,0.00,
"CA001163810","1950-05-29",64.94,41.00,0.00,0.00,
"CA001163810","1950-05-30",69.08,44.06,0.00,0.00,
"CA001163810","1950-05-31",73.94,39.02,0.00,0.00,
"CA001163810","1950-06-01",75.92,48.02,5.00,0.00,
"CA001163810","1950-06-02",80.06,39.02,0.00,0.00,
"CA001163810","1950-06-03",78.08,46.04,0.00,0.00,
"CA001163810","1950-06-04",80.96,55.94,0.00,0.00,
"CA001163810","1950-06-05",80.96,48.92,0.00,0.00,
"CA001163810","1950-06-06",62.96,41.00,8.00,0.00,
"CA001163810","1950-06-07",75.02,44.96,0.00,0.00,
"CA001163810","1950-06-08",75.02,51.98,0.00,0.00,
"CA001163810","1950-06-09",73.94,55.04,0.00,0.00,
"CA001163810","1950-06-10",86.00,48.02,0.00,0.00,
"CA001163810","1950-06-11",87.08,55.04,0.00,0.00,
"CA001163810","1950-06-12",93.02,53.06,0.00,0.00,
"CA001163810","1950-06-13",93.02,60.98,0.00,0.00,
"CA001163810","1950-06-14",93.02,62.06,30.00,0.00,
"CA001163810","1950-06-15",84.02,55.94,0.00,0.00,
"CA001163810","1950-06-16",89.96,55.04,0.00,0.00,
"CA001163810","1950-06-17",91.94,53.06,0.00,0.00,
"CA001163810","1950-06-18",91.04,55.04,0.00,0.00,
"CA001163810","1950-06-19",91.94,55.94,0.00,0.00,
"CA001163810","1950-06-20",89.96,57.92,0.00,0.00,
"CA001163810","1950-06-21",87.08,64.94,0.00,0.00,
"CA001163810","1950-06-22",80.06,51.08,18.00,0.00,
"CA001163810","1950-06-23",68.00,48.92,76.00,0.00,
"CA001163810","1950-06-24",71.96,53.06,10.00,0.00,
"CA001163810","1950-06-25",78.98,53.06,0.00,0.00,
"CA001163810","1950-06-26",78.98,53.96,0.00,0.00,
"CA001163810","1950-06-27",80.06,50.00,0.00,0.00,
"CA001163810","1950-06-28",87.98,59.00,0.00,0.00,
"CA001163810","1950-06-29",89.96,62.06,0.00,0.00,
"CA001163810","1950-06-30",89.06,59.00,0.00,0.00,
"CA001163810","1950-07-01",87.08,59.00,0.00,0.00,
"CA001163810","1950-07-02",87.98,55.04,0.00,0.00,
"CA001163810","1950-07-03",95.00,51.98,0.00,0.00,
"CA001163810","1950-07-04",95.00,59.00,0.00,0.00,
"CA001163810","1950-07-05",96.08,60.08,0.00,0.00,
"CA001163810","1950-07-06",93.02,71.96,0.00,0.00,
"CA001163810","1950-07-07",87.08,66.92,0.00,0.00,
"CA001163810","1950-07-08",87.08,55.94,0.00,0.00,
"CA001163810","1950-07-09",77.00,55.04,20.00,0.00,
"CA001163810","1950-07-10",75.92,46.94,0.00,0.00,
"CA001163810","1950-07-11",71.96,53.06,18.00,0.00,
"CA001163810","1950-07-12",87.08,55.94,0.00,0.00,
"CA001163810","1950-07-13",87.08,60.08,0.00,0.00,
"CA001163810","1950-07-14",78.98,55.04,0.00,0.00,
"CA001163810","1950-07-15",75.02,57.02,20.00,0.00,
"CA001163810","1950-07-16",80.96,51.08,8.00,0.00,
"CA001163810","1950-07-17",86.00,53.06,0.00,0.00,
"CA001163810","1950-07-18",89.96,55.04,0.00,0.00,
"CA001163810","1950-07-19",87.98,62.06,0.00,0.00,
"CA001163810","1950-07-20",82.94,55.94,0.00,0.00,
"CA001163810","1950-07-21",89.06,53.06,0.00,0.00,
"CA001163810","1950-07-22",96.08,57.92,0.00,0.00,
"CA001163810","1950-07-23",98.06,57.02,0.00,0.00,
"CA001163810","1950-07-24",96.98,64.94,0.00,0.00,
"CA001163810","1950-07-25",98.96,59.00,0.00,0.00,
"CA001163810","1950-07-26",91.94,62.06,0.00,0.00,
"CA001163810","1950-07-27",87.08,57.02,18.00,0.00,
"CA001163810","1950-07-28",68.00,55.94,127.00,0.00,
"CA001163810","1950-07-29",78.98,53.06,0.00,0.00,
"CA001163810","1950-07-30",80.06,59.00,0.00,0.00,
"CA001163810","1950-07-31",87.98,51.98,0.00,0.00,
"CA001163810","1950-08-01",96.08,57.02,0.00,0.00,
"CA001163810","1950-08-02",80.06,69.98,3.00,0.00,
"CA001163810","1950-08-03",68.00,53.96,0.00,0.00,
"CA001163810","1950-08-04",78.08,46.04,0.00,0.00,
"CA001163810","1950-08-05",80.96,48.02,0.00,0.00,
"CA001163810","1950-08-06",78.08,57.92,0.00,0.00,
"CA001163810","1950-08-07",78.08,53.96,0.00,0.00,
"CA001163810","1950-08-08",78.98,55.04,0.00,0.00,
"CA001163810","1950-08-09",82.94,53.96,0.00,0.00,
"CA001163810","1950-08-10",82.94,57.02,0.00,0.00,
"CA001163810","1950-08-11",84.02,53.06,0.00,0.00,
"CA001163810","1950-08-12",86.00,53.96,0.00,0.00,
"CA001163810","1950-08-13",84.02,57.92,0.00,0.00,
"CA001163810","1950-08-14",80.06,53.06,0.00,0.00,
"CA001163810","1950-08-15",78.98,53.06,56.00,0.00,
"CA001163810","1950-08-16",78.98,53.96,0.00,0.00,
"CA001163810","1950-08-17",80.06,55.04,0.00,0.00,
"CA001163810","1950-08-18",84.02,55.94,0.00,0.00,
"CA001163810","1950-08-19",86.00,51.98,0.00,0.00,
"CA001163810","1950-08-20",93.02,60.08,0.00,0.00,
"CA001163810","1950-08-21",95.00,51.98,0.00,0.00,
"CA001163810","1950-08-22",95.00,57.92,0.00,0.00,
"CA001163810","1950-08-23",91.94,62.06,48.00,0.00,
"CA001163810","1950-08-24",77.00,60.98,0.00,0.00,
"CA001163810","1950-08-25",82.94,53.96,13.00,0.00,
"CA001163810","1950-08-26",91.04,60.08,0.00,0.00,
"CA001163810","1950-08-27",87.98,60.08,0.00,0.00,
"CA001163810","1950-08-28",80.96,48.02,0.00,0.00,
"CA001163810","1950-08-29",80.06,51.98,0.00,0.00,
"CA001163810","1950-08-30",82.04,48.02,0.00,0.00,
"CA001163810","1950-08-31",87.08,48.02,0.00,0.00,
"CA001163810","1950-09-01",89.96,66.92,0.00,0.00,
"CA001163810","1950-09-02",91.94,51.98,0.00,0.00,
"CA001163810","1950-09-03",93.02,53.96,0.00,0.00,
"CA001163810","1950-09-04",91.04,57.02,0.00,0.00,
"CA001163810","1950-09-05",82.94,44.96,0.00,0.00,
"CA001163810","1950-09-06",82.04,48.92,0.00,0.00,
"CA001163810","1950-09-07",78.98,42.98,0.00,0.00,
"CA001163810","1950-09-08",80.06,44.96,0.00,0.00,
"CA001163810","1950-09-09",84.92,44.06,0.00,0.00,
"CA001163810","1950-09-10",84.02,39.92,0.00,0.00,
"CA001163810","1950-09-11",84.92,39.92,0.00,0.00,
"CA001163810","1950-09-12",87.98,42.98,0.00,0.00,
"CA001163810","1950-09-13",87.98,42.98,0.00,0.00,
"CA001163810","1950-09-14",84.92,42.08,0.00,0.00,
"CA001163810","1950-09-15",84.02,42.08,0.00,0.00,
"CA001163810","1950-09-16",84.02,42.08,0.00,0.00,
"CA001163810","1950-09-17",82.94,42.08,0.00,0.00,
"CA001163810","1950-09-18",82.04,41.00,0.00,0.00,
"CA001163810","1950-09-19",80.96,42.98,0.00,0.00,
"CA001163810","1950-09-20",82.04,42.98,0.00,0.00,
"CA001163810","1950-09-21",82.04,46.04,0.00,0.00,
"CA001163810","1950-09-22",89.96,50.00,0.00,0.00,
"CA001163810","1950-09-23",89.06,57.92,0.00,0.00,
"CA001163810","1950-09-24",77.00,59.00,0.00,0.00,
"CA001163810","1950-09-25",69.08,57.02,0.00,0.00,
"CA001163810","1950-09-26",66.02,46.94,0.00,0.00,
"CA001163810","1950-09-27",62.06,33.08,0.00,0.00,
"CA001163810","1950-09-28",60.98,41.00,0.00,0.00,
"CA001163810","1950-09-29",60.98,33.98,0.00,0.00,
"CA001163810","1950-09-30",,28.04,0.00,0.00,
"CA001163810","1950-10-01",51.08,32.00,0.00,0.00,
"CA001163810","1950-10-02",57.02,26.06,0.00,0.00,
"CA001163810","1950-10-03",57.92,26.06,0.00,0.00,
"CA001163810","1950-10-04",60.08,44.96,0.00,0.00,
"CA001163810","1950-10-05",51.98,46.04,69.00,0.00,
"CA001163810","1950-10-06",62.06,39.92,0.00,0.00,
"CA001163810","1950-10-07",59.00,48.02,0.00,0.00,
"CA001163810","1950-10-08",66.02,48.02,74.00,0.00,
"CA001163810","1950-10-09",64.04,33.08,0.00,0.00,
"CA001163810","1950-10-10",68.00,50.00,0.00,0.00,
"CA001163810","1950-10-11",64.04,48.92,0.00,0.00,
"CA001163810","1950-10-12",64.04,50.00,0.00,0.00,
"CA001163810","1950-10-13",62.06,39.92,0.00,0.00,
"CA001163810","1950-10-14",62.06,44.96,0.00,0.00,
"CA001163810","1950-10-15",60.08,33.98,5.00,0.00,
"CA001163810","1950-10-16",55.04,28.04,0.00,0.00,
"CA001163810","1950-10-17",44.06,24.98,0.00,0.00,
"CA001163810","1950-10-18",42.98,33.98,38.00,0.00,
"CA001163810","1950-10-19",44.06,39.02,58.00,0.00,
"CA001163810","1950-10-20",48.02,37.04,0.00,0.00,
"CA001163810","1950-10-21",44.96,30.02,0.00,0.00,
"CA001163810","1950-10-22",50.00,32.00,0.00,0.00,
"CA001163810","1950-10-23",53.06,30.92,0.00,0.00,
"CA001163810","1950-10-24",57.92,37.04,0.00,0.00,
"CA001163810","1950-10-25",62.06,42.98,0.00,0.00,
"CA001163810","1950-10-26",57.02,42.98,0.00,0.00,
"CA001163810","1950-10-27",57.92,37.94,69.00,0.00,
"CA001163810","1950-10-28",53.06,44.06,0.00,0.00,
"CA001163810","1950-10-29",,44.06,0.00,0.00,
"CA001163810","1950-10-30",57.92,37.04,0.00,0.00,
"CA001163810","1950-10-31",53.96,37.94,0.00,0.00,
"CA001163810","1950-11-01",48.02,32.00,0.00,0.00,
"CA001163810","1950-11-02",48.02,26.06,0.00,0.00,
"CA001163810","1950-11-03",51.98,33.98,89.00,0.00,
"CA001163810","1950-11-04",60.08,44.96,0.00,0.00,
"CA001163810","1950-11-05",55.04,30.02,86.00,0.00,
"CA001163810","1950-11-06",62.06,30.92,28.00,0.00,
"CA001163810","1950-11-07",41.00,26.96,0.00,0.00,
"CA001163810","1950-11-08",37.94,28.94,0.00,0.00,
"CA001163810","1950-11-09",33.08,17.06,0.00,0.00,
"CA001163810","1950-11-10",35.96,28.04,0.00,0.00,